Regional Weather Roundup
Issued by NWS Cleveland, OH

Home | Current Version | Previous Version | Text Only | Print | Product List | Glossary Off
Versions: 1 2 3 4 5 6 7 8 9 10 11 12 13 14 15 16 17 18 19 20 21 22 23 24 25 26 27 28 29 30 31 32 33 34 35 36 37 38 39 40 41 42 43 44 45 46 47 48 49 50

000
ASUS41 KCLE 271910
RWRCLE
OHIO REGIONAL WEATHER ROUNDUP
NATIONAL WEATHER SERVICE WILMINGTON, OH
300 PM EDT WED MAY 27 2015

NOTE: "FAIR" INDICATES FEW OR NO CLOUDS BELOW 12,000 FEET WITH NO
SIGNIFICANT WEATHER AND/OR OBSTRUCTIONS TO VISIBILITY.

OHZ001>008-015>018-024>027-034-035-043-044-272000-
   NORTHWEST OHIO

CITY           SKY/WX    TMP DP  RH WIND       PRES   REMARKS
DEFIANCE       LGT RAIN  67  63  87 NW9       30.01F
FINDLAY        MOSUNNY   82  64  54 S23G31    29.99F
TOLEDO EXPRESS TSTM      73  65  75 W20       30.00R
TOLEDO EXEC    CLOUDY    75  60  59 SW12      29.99S
LIMA           MOSUNNY   80  63  55 S18G25    30.02F
$$

OHZ009>014-019>023-028>033-038-089-272000-
   NORTHEAST OHIO

CITY           SKY/WX    TMP DP  RH WIND       PRES   REMARKS
CLE-HOPKINS    PTSUNNY   80  60  50 S20G25    30.04F
CLE-LAKEFRONT  MOSUNNY   83  60  45 SW16G26   30.00F
CUY CO. ARPT   PTSUNNY   82  63  51 S17       30.04F
LORAIN-ELYRIA  PTSUNNY   81  60  48 SW24G31   30.03S
ASHTABULA      PTSUNNY   79  61  53 SW18G24   30.05F
AKRON-CANTON   PTSUNNY   80  61  52 S14G24    30.08F
WOOSTER        MOSUNNY   78  63  59 SW17G24   30.08F
MANSFIELD      PTSUNNY   79  61  53 S18G29    30.08S
YOUNGSTOWN     MOSUNNY   80  60  50 SW13G23   30.08F
$$

OHZ042-051>053-060>062-070>072-077>081-272000-
  SOUTHWEST OHIO

CITY           SKY/WX    TMP DP  RH WIND       PRES   REMARKS
CINC-COVINGTON PTSUNNY   80  64  58 S14G20    30.11F
CINC-LUNKEN    MOSUNNY   80  64  58 SW13G22   30.10F
HAMILTON       MOSUNNY   82  64  54 S9G22     30.09F
DAYTON         PTSUNNY   81  63  54 S15G25    30.07F
WRIGHT-PAT AFB PTSUNNY   82  62  50 S18G25    30.06F
DAYTON GENERAL SUNNY     81  62  52 S14G22    30.08F
WILMINGTON     MOSUNNY   80  61  52 SW20G25   30.10F
$$

OHZ036-037-039>041-045>050-054>059-063>069-073>076-082>088-272000-
  CENTRAL AND SOUTHEAST OHIO

CITY           SKY/WX    TMP DP  RH WIND       PRES   REMARKS
COLUMBUS       MOSUNNY   80  62  54 SW15      30.09F
OSU AIRPORT    MOSUNNY   82  61  48 SW14G25   30.08F
BOLTON FIELD   PTSUNNY   81  63  54 S17G23    30.09F
RICKENBACK AFB MOSUNNY   81  63  55 SW16G25   30.09F
NEWARK         PTSUNNY   77  61  57 SW15G21   30.10F
MARION         MOSUNNY   81  61  50 SW17G29   30.06F
LANCASTER      MOSUNNY   83  61  47 SW14      30.11F
ZANESVILLE     MOSUNNY   79  60  52 SW13      30.11F
NEW PHILLY     MOSUNNY   81  61  50 S9G20     30.10F
$$



USA.gov is the U.S. government's official web portal to all federal, state and local government web resources and services.